,,PressureMeas_1m,,PRMeasQMR101_1,,RHStat155_1m_1,,SRMeasQMS101R_1m,,TAStat155_1m_1,,GenWind_1,,GenWind_1,
2019-03-23, 00:00:06,VALID,919.482,VALID,0.0,VALID,92.713,VALID,-0.014,VALID,21.335,VALID,51.0,VALID,0.102,
2019-03-23, 00:01:06,VALID,919.49,VALID,0.0,VALID,93.016,VALID,-0.008,VALID,21.336,INVALID,360.0,VALID,0.023,
2019-03-23, 00:02:06,VALID,919.502,VALID,0.0,VALID,93.289,VALID,-0.007,VALID,21.336,INVALID,360.0,VALID,0.005,
2019-03-23, 00:03:06,VALID,919.511,VALID,0.0,VALID,93.488,VALID,-0.008,VALID,21.349,INVALID,360.0,VALID,0.0,
2019-03-23, 00:04:06,VALID,919.506,VALID,0.0,VALID,93.401,VALID,0.0,VALID,21.353,INVALID,360.0,VALID,0.0,
2019-03-23, 00:05:06,VALID,919.484,VALID,0.0,VALID,93.077,VALID,0.0,VALID,21.354,INVALID,360.0,VALID,0.0,
2019-03-23, 00:06:06,VALID,919.459,VALID,0.0,VALID,93.207,VALID,-0.008,VALID,21.367,INVALID,360.0,VALID,0.0,
2019-03-23, 00:07:06,VALID,919.422,VALID,0.0,VALID,93.272,VALID,-0.02,VALID,21.337,INVALID,360.0,VALID,0.0,
2019-03-23, 00:08:06,VALID,919.403,VALID,0.0,VALID,93.397,VALID,-0.012,VALID,21.296,INVALID,360.0,VALID,0.0,
2019-03-23, 00:09:06,VALID,919.393,VALID,0.0,VALID,92.937,VALID,0.006,VALID,21.288,INVALID,360.0,VALID,0.0,
2019-03-23, 00:10:06,VALID,919.396,VALID,0.0,VALID,92.746,VALID,0.004,VALID,21.314,INVALID,360.0,VALID,0.0,
2019-03-23, 00:11:06,VALID,919.381,VALID,0.0,VALID,92.588,VALID,0.013,VALID,21.313,INVALID,360.0,VALID,0.0,
2019-03-23, 00:12:06,VALID,919.386,VALID,0.0,VALID,92.571,VALID,-0.001,VALID,21.321,INVALID,360.0,VALID,0.004,
2019-03-23, 00:13:06,VALID,919.375,VALID,0.0,VALID,92.512,VALID,-0.011,VALID,21.35,INVALID,360.0,VALID,0.013,
2019-03-23, 00:14:06,VALID,919.35,VALID,0.0,VALID,92.42,VALID,-0.004,VALID,21.365,INVALID,360.0,VALID,0.0,
2019-03-23, 00:15:06,VALID,919.33,VALID,0.0,VALID,92.504,VALID,-0.019,VALID,21.376,INVALID,360.0,VALID,0.0,
2019-03-23, 00:16:06,VALID,919.324,VALID,0.0,VALID,93.073,VALID,-0.019,VALID,21.37,INVALID,360.0,VALID,0.0,
2019-03-23, 00:17:06,VALID,919.306,VALID,0.0,VALID,93.277,VALID,-0.02,VALID,21.359,INVALID,360.0,VALID,0.0,
2019-03-23, 00:18:06,VALID,919.283,VALID,0.0,VALID,92.21,VALID,-0.018,VALID,21.35,INVALID,360.0,VALID,0.0,
2019-03-23, 00:19:06,VALID,919.236,VALID,0.0,VALID,91.344,VALID,-0.006,VALID,21.396,INVALID,360.0,VALID,0.0,
2019-03-23, 00:20:06,VALID,919.209,VALID,0.0,VALID,91.527,VALID,-0.018,VALID,21.462,INVALID,360.0,VALID,0.0,
2019-03-23, 00:21:06,VALID,919.185,VALID,0.0,VALID,91.67,VALID,-0.006,VALID,21.501,INVALID,360.0,VALID,0.0,
2019-03-23, 00:22:06,VALID,919.208,VALID,0.0,VALID,91.441,VALID,-0.012,VALID,21.484,INVALID,360.0,VALID,0.0,
2019-03-23, 00:23:06,VALID,919.222,VALID,0.0,VALID,91.523,VALID,-0.003,VALID,21.463,INVALID,360.0,VALID,0.0,
2019-03-23, 00:24:06,VALID,919.256,VALID,0.0,VALID,91.162,VALID,-0.01,VALID,21.443,INVALID,360.0,VALID,0.0,
2019-03-23, 00:25:06,VALID,919.273,VALID,0.0,VALID,91.244,VALID,-0.01,VALID,21.461,INVALID,360.0,VALID,0.0,
2019-03-23, 00:26:06,VALID,919.305,VALID,0.0,VALID,91.481,VALID,-0.026,VALID,21.497,INVALID,360.0,VALID,0.0,
2019-03-23, 00:27:06,VALID,919.317,VALID,0.0,VALID,91.255,VALID,-0.007,VALID,21.489,INVALID,360.0,VALID,0.0,
2019-03-23, 00:28:06,VALID,919.318,VALID,0.0,VALID,91.331,VALID,-0.008,VALID,21.461,INVALID,360.0,VALID,0.0,
2019-03-23, 00:29:06,VALID,919.319,VALID,0.0,VALID,91.479,VALID,-0.003,VALID,21.464,INVALID,360.0,VALID,0.0,
2019-03-23, 00:30:06,VALID,919.289,VALID,0.0,VALID,91.927,VALID,0.003,VALID,21.492,INVALID,360.0,VALID,0.0,
2019-03-23, 00:31:06,VALID,919.271,VALID,0.0,VALID,92.255,VALID,0.01,VALID,21.476,INVALID,360.0,VALID,0.0,
2019-03-23, 00:32:06,VALID,919.248,VALID,0.0,VALID,92.519,VALID,-0.002,VALID,21.387,INVALID,360.0,VALID,0.0,
2019-03-23, 00:33:06,VALID,919.212,VALID,0.0,VALID,92.335,VALID,-0.003,VALID,21.28,INVALID,360.0,VALID,0.0,
2019-03-23, 00:34:06,VALID,919.179,VALID,0.0,VALID,92.367,VALID,0.013,VALID,21.238,INVALID,360.0,VALID,0.0,
2019-03-23, 00:35:06,VALID,919.148,VALID,0.0,VALID,92.654,VALID,-0.01,VALID,21.212,INVALID,360.0,VALID,0.0,
2019-03-23, 00:36:06,VALID,919.124,VALID,0.0,VALID,93.032,VALID,0.004,VALID,21.191,INVALID,360.0,VALID,0.0,
2019-03-23, 00:37:06,VALID,919.104,VALID,0.0,VALID,92.831,VALID,0.005,VALID,21.185,INVALID,360.0,VALID,0.0,
2019-03-23, 00:38:06,VALID,919.095,VALID,0.0,VALID,92.496,VALID,0.003,VALID,21.205,INVALID,360.0,VALID,0.0,
2019-03-23, 00:39:06,VALID,919.079,VALID,0.0,VALID,92.317,VALID,0.005,VALID,21.225,INVALID,360.0,VALID,0.0,
2019-03-23, 00:40:06,VALID,919.082,VALID,0.0,VALID,92.369,VALID,0.009,VALID,21.242,INVALID,360.0,VALID,0.0,
2019-03-23, 00:41:06,VALID,919.081,VALID,0.0,VALID,92.233,VALID,0.005,VALID,21.263,INVALID,360.0,VALID,0.0,
2019-03-23, 00:42:06,VALID,919.078,VALID,0.0,VALID,92.047,VALID,-0.009,VALID,21.289,INVALID,360.0,VALID,0.0,
2019-03-23, 00:43:06,VALID,919.06,VALID,0.0,VALID,91.988,VALID,-0.007,VALID,21.301,INVALID,360.0,VALID,0.0,
2019-03-23, 00:44:06,VALID,919.056,VALID,0.0,VALID,92.053,VALID,-0.005,VALID,21.319,INVALID,360.0,VALID,0.0,
2019-03-23, 00:45:06,VALID,919.058,VALID,0.0,VALID,91.975,VALID,-0.007,VALID,21.328,INVALID,360.0,VALID,0.0,
2019-03-23, 00:46:06,VALID,919.045,VALID,0.0,VALID,91.936,VALID,-0.014,VALID,21.342,INVALID,360.0,VALID,0.0,
2019-03-23, 00:47:06,VALID,919.045,VALID,0.0,VALID,91.802,VALID,0.004,VALID,21.346,INVALID,360.0,VALID,0.0,
2019-03-23, 00:48:06,VALID,919.011,VALID,0.0,VALID,91.895,VALID,0.006,VALID,21.32,INVALID,360.0,VALID,0.0,
2019-03-23, 00:49:06,VALID,918.99,VALID,0.0,VALID,92.309,VALID,0.007,VALID,21.283,INVALID,360.0,VALID,0.0,
2019-03-23, 00:50:06,VALID,918.935,VALID,0.0,VALID,92.483,VALID,-0.004,VALID,21.245,INVALID,360.0,VALID,0.0,
2019-03-23, 00:51:06,VALID,918.889,VALID,0.0,VALID,92.552,VALID,-0.022,VALID,21.201,INVALID,360.0,VALID,0.0,
2019-03-23, 00:52:06,VALID,918.856,VALID,0.0,VALID,92.681,VALID,-0.014,VALID,21.189,INVALID,360.0,VALID,0.0,
2019-03-23, 00:53:06,VALID,918.808,VALID,0.0,VALID,92.795,VALID,-0.009,VALID,21.138,INVALID,360.0,VALID,0.0,
2019-03-23, 00:54:06,VALID,918.795,VALID,0.0,VALID,92.908,VALID,-0.01,VALID,21.106,INVALID,360.0,VALID,0.0,
2019-03-23, 00:55:06,VALID,918.792,VALID,0.0,VALID,93.01,VALID,0.003,VALID,21.096,INVALID,360.0,VALID,0.0,
2019-03-23, 00:56:06,VALID,918.789,VALID,0.0,VALID,92.973,VALID,0.001,VALID,21.092,INVALID,360.0,VALID,0.0,
2019-03-23, 00:57:06,VALID,918.827,VALID,0.0,VALID,93.042,VALID,0.003,VALID,21.077,INVALID,360.0,VALID,0.0,
2019-03-23, 00:58:06,VALID,918.88,VALID,0.0,VALID,93.194,VALID,-0.007,VALID,21.075,VALID,49.0,VALID,0.0,
2019-03-23, 00:59:06,VALID,918.93,VALID,0.0,VALID,93.13,VALID,0.018,VALID,21.081,INVALID,360.0,VALID,0.0,
2019-03-23, 01:00:06,VALID,918.941,VALID,0.0,VALID,93.318,VALID,-0.021,VALID,21.086,INVALID,360.0,VALID,0.0,
2019-03-23, 01:01:06,VALID,918.957,VALID,0.0,VALID,93.081,VALID,0.004,VALID,21.103,INVALID,360.0,VALID,0.0,
2019-03-23, 01:02:07,VALID,918.99,VALID,0.0,VALID,93.057,VALID,-0.002,VALID,21.136,INVALID,360.0,VALID,0.0,
2019-03-23, 01:03:07,VALID,918.987,VALID,0.0,VALID,93.005,VALID,0.002,VALID,21.132,INVALID,360.0,VALID,0.0,
2019-03-23, 01:04:07,VALID,919.0,VALID,0.0,VALID,92.963,VALID,0.0,VALID,21.12,INVALID,360.0,VALID,0.0,
2019-03-23, 01:05:07,VALID,918.985,VALID,0.0,VALID,93.077,VALID,0.0,VALID,21.15,INVALID,360.0,VALID,0.0,
2019-03-23, 01:06:07,VALID,918.947,VALID,0.0,VALID,92.76,VALID,-0.008,VALID,21.171,INVALID,360.0,VALID,0.0,
2019-03-23, 01:07:07,VALID,918.939,VALID,0.0,VALID,92.646,VALID,0.004,VALID,21.168,INVALID,360.0,VALID,0.0,
2019-03-23, 01:08:07,VALID,918.91,VALID,0.0,VALID,92.732,VALID,0.004,VALID,21.083,INVALID,360.0,VALID,0.0,
2019-03-23, 01:09:07,VALID,918.901,VALID,0.0,VALID,93.277,VALID,0.009,VALID,20.948,VALID,48.0,VALID,0.0,
2019-03-23, 01:10:07,VALID,918.894,VALID,0.0,VALID,93.897,VALID,0.018,VALID,20.866,VALID,48.0,VALID,0.0,
2019-03-23, 01:11:07,VALID,918.89,VALID,0.0,VALID,94.143,VALID,0.007,VALID,20.819,VALID,48.0,VALID,0.0,
2019-03-23, 01:12:07,VALID,918.892,VALID,0.0,VALID,94.375,VALID,0.003,VALID,20.804,VALID,48.0,VALID,0.0,
2019-03-23, 01:13:07,VALID,918.877,VALID,0.0,VALID,94.5,VALID,0.015,VALID,20.795,VALID,48.0,VALID,0.0,
2019-03-23, 01:14:07,VALID,918.855,VALID,0.0,VALID,94.467,VALID,0.042,VALID,20.806,VALID,47.0,VALID,0.0,
2019-03-23, 01:15:07,VALID,918.853,VALID,0.0,VALID,94.371,VALID,0.036,VALID,20.842,VALID,48.0,VALID,0.0,
2019-03-23, 01:16:07,VALID,918.836,VALID,0.0,VALID,94.174,VALID,0.031,VALID,20.866,VALID,47.0,VALID,0.0,
2019-03-23, 01:17:07,VALID,918.836,VALID,0.0,VALID,94.062,VALID,0.039,VALID,20.888,VALID,47.0,VALID,0.0,
2019-03-23, 01:18:07,VALID,918.834,VALID,0.0,VALID,93.907,VALID,0.039,VALID,20.909,VALID,47.0,VALID,0.0,
2019-03-23, 01:19:07,VALID,918.85,VALID,0.0,VALID,93.745,VALID,0.042,VALID,20.928,INVALID,360.0,VALID,0.0,
2019-03-23, 01:20:07,VALID,918.871,VALID,0.0,VALID,93.612,VALID,0.03,VALID,20.957,INVALID,360.0,VALID,0.0,
2019-03-23, 01:21:07,VALID,918.901,VALID,0.0,VALID,93.404,VALID,0.031,VALID,20.963,INVALID,360.0,VALID,0.0,
2019-03-23, 01:22:07,VALID,918.943,VALID,0.0,VALID,93.131,VALID,0.031,VALID,20.913,INVALID,360.0,VALID,0.0,
2019-03-23, 01:23:07,VALID,918.96,VALID,0.0,VALID,93.61,VALID,0.029,VALID,20.913,INVALID,360.0,VALID,0.0,
2019-03-23, 01:24:07,VALID,918.98,VALID,0.0,VALID,93.618,VALID,0.041,VALID,20.901,INVALID,360.0,VALID,0.0,
2019-03-23, 01:25:07,VALID,919.012,VALID,0.0,VALID,93.675,VALID,0.038,VALID,20.862,INVALID,360.0,VALID,0.0,
2019-03-23, 01:26:07,VALID,919.033,VALID,0.0,VALID,93.899,VALID,0.041,VALID,20.826,INVALID,360.0,VALID,0.0,
2019-03-23, 01:27:07,VALID,919.015,VALID,0.0,VALID,94.111,VALID,0.034,VALID,20.797,INVALID,360.0,VALID,0.0,
2019-03-23, 01:28:07,VALID,919.038,VALID,0.0,VALID,94.089,VALID,0.032,VALID,20.725,INVALID,360.0,VALID,0.0,
2019-03-23, 01:29:07,VALID,919.04,VALID,0.0,VALID,94.555,VALID,-0.001,VALID,20.723,INVALID,360.0,VALID,0.0,
2019-03-23, 01:30:07,VALID,919.038,VALID,0.0,VALID,94.698,VALID,-0.02,VALID,20.721,INVALID,360.0,VALID,0.0,
2019-03-23, 01:31:07,VALID,919.058,VALID,0.0,VALID,94.728,VALID,-0.022,VALID,20.711,INVALID,360.0,VALID,0.0,
2019-03-23, 01:32:07,VALID,919.066,VALID,0.0,VALID,94.787,VALID,-0.014,VALID,20.719,INVALID,360.0,VALID,0.0,
2019-03-23, 01:33:07,VALID,919.038,VALID,0.0,VALID,94.845,VALID,-0.038,VALID,20.754,INVALID,360.0,VALID,0.0,
2019-03-23, 01:34:07,VALID,919.028,VALID,0.0,VALID,94.862,VALID,-0.031,VALID,20.782,INVALID,360.0,VALID,0.0,
2019-03-23, 01:35:07,VALID,919.011,VALID,0.0,VALID,94.725,VALID,-0.022,VALID,20.81,INVALID,360.0,VALID,0.0,
2019-03-23, 01:36:07,VALID,918.994,VALID,0.0,VALID,94.483,VALID,-0.032,VALID,20.835,INVALID,360.0,VALID,0.0,
2019-03-23, 01:37:07,VALID,918.995,VALID,0.0,VALID,94.112,VALID,-0.028,VALID,20.856,INVALID,360.0,VALID,0.0,
2019-03-23, 01:38:07,VALID,918.959,VALID,0.0,VALID,93.905,VALID,-0.035,VALID,20.864,INVALID,360.0,VALID,0.0,
2019-03-23, 01:39:07,VALID,918.961,VALID,0.0,VALID,93.528,VALID,-0.044,VALID,20.802,INVALID,360.0,VALID,0.0,
2019-03-23, 01:40:07,VALID,918.959,VALID,0.0,VALID,93.731,VALID,-0.036,VALID,20.77,INVALID,360.0,VALID,0.0,
2019-03-23, 01:41:07,VALID,918.941,VALID,0.0,VALID,93.852,VALID,-0.02,VALID,20.751,INVALID,360.0,VALID,0.0,
2019-03-23, 01:42:07,VALID,918.925,VALID,0.0,VALID,93.985,VALID,-0.02,VALID,20.743,INVALID,360.0,VALID,0.0,
2019-03-23, 01:43:07,VALID,918.92,VALID,0.0,VALID,94.062,VALID,-0.036,VALID,20.738,INVALID,360.0,VALID,0.0,
2019-03-23, 01:44:07,VALID,918.895,VALID,0.0,VALID,94.045,VALID,0.006,VALID,20.733,INVALID,360.0,VALID,0.0,
2019-03-23, 01:45:07,VALID,918.884,VALID,0.0,VALID,94.02,VALID,-0.008,VALID,20.71,INVALID,360.0,VALID,0.0,
2019-03-23, 01:46:07,VALID,918.853,VALID,0.0,VALID,94.126,VALID,-0.001,VALID,20.694,INVALID,360.0,VALID,0.0,
2019-03-23, 01:47:07,VALID,918.836,VALID,0.0,VALID,94.165,VALID,0.0,VALID,20.681,INVALID,360.0,VALID,0.0,
2019-03-23, 01:48:07,VALID,918.81,VALID,0.0,VALID,94.208,VALID,0.002,VALID,20.657,INVALID,360.0,VALID,0.0,
2019-03-23, 01:49:07,VALID,918.804,VALID,0.0,VALID,94.252,VALID,0.003,VALID,20.637,INVALID,360.0,VALID,0.0,
2019-03-23, 01:50:07,VALID,918.779,VALID,0.0,VALID,94.145,VALID,-0.0,VALID,20.603,INVALID,360.0,VALID,0.0,
2019-03-23, 01:51:07,VALID,918.774,VALID,0.0,VALID,94.081,VALID,0.012,VALID,20.556,INVALID,360.0,VALID,0.0,
2019-03-23, 01:52:07,VALID,918.761,VALID,0.0,VALID,93.886,VALID,0.002,VALID,20.419,INVALID,360.0,VALID,0.0,
2019-03-23, 01:53:07,VALID,918.742,VALID,0.0,VALID,94.229,VALID,-0.011,VALID,20.301,INVALID,360.0,VALID,0.0,
2019-03-23, 01:54:07,VALID,918.747,VALID,0.0,VALID,94.904,VALID,-0.011,VALID,20.244,INVALID,360.0,VALID,0.0,
2019-03-23, 01:55:07,VALID,918.74,VALID,0.0,VALID,95.38,VALID,-0.009,VALID,20.211,INVALID,360.0,VALID,0.0,
2019-03-23, 01:56:07,VALID,918.72,VALID,0.0,VALID,95.44,VALID,-0.006,VALID,20.159,INVALID,360.0,VALID,0.0,
2019-03-23, 01:57:07,VALID,918.707,VALID,0.0,VALID,95.784,VALID,0.002,VALID,20.158,INVALID,360.0,VALID,0.0,
2019-03-23, 01:58:07,VALID,918.673,VALID,0.0,VALID,95.984,VALID,-0.009,VALID,20.16,INVALID,360.0,VALID,0.0,
2019-03-23, 01:59:07,VALID,918.671,VALID,0.0,VALID,96.177,VALID,0.007,VALID,20.182,INVALID,360.0,VALID,0.0,
2019-03-23, 02:00:07,VALID,918.623,VALID,0.0,VALID,96.286,VALID,0.014,VALID,20.202,INVALID,360.0,VALID,0.0,
2019-03-23, 02:01:07,VALID,918.593,VALID,0.0,VALID,96.083,VALID,-0.001,VALID,20.18,INVALID,360.0,VALID,0.0,
2019-03-23, 02:02:07,VALID,918.573,VALID,0.0,VALID,95.829,VALID,0.019,VALID,20.106,INVALID,360.0,VALID,0.0,
2019-03-23, 02:03:07,VALID,918.533,VALID,0.0,VALID,95.956,VALID,-0.017,VALID,20.073,INVALID,360.0,VALID,0.0,
2019-03-23, 02:04:07,VALID,918.541,VALID,0.0,VALID,96.512,VALID,0.002,VALID,20.145,INVALID,360.0,VALID,0.0,
2019-03-23, 02:05:07,VALID,918.502,VALID,0.0,VALID,96.506,VALID,-0.005,VALID,20.206,INVALID,360.0,VALID,0.0,
2019-03-23, 02:06:07,VALID,918.484,VALID,0.0,VALID,96.278,VALID,-0.012,VALID,20.277,INVALID,360.0,VALID,0.0,
2019-03-23, 02:07:07,VALID,918.479,VALID,0.0,VALID,96.074,VALID,0.005,VALID,20.356,INVALID,360.0,VALID,0.0,
2019-03-23, 02:08:07,VALID,918.473,VALID,0.0,VALID,95.616,VALID,0.035,VALID,20.357,INVALID,360.0,VALID,0.0,
2019-03-23, 02:09:07,VALID,918.468,VALID,0.0,VALID,95.004,VALID,0.009,VALID,20.296,INVALID,360.0,VALID,0.0,
2019-03-23, 02:10:07,VALID,918.462,VALID,0.0,VALID,95.505,VALID,0.008,VALID,20.349,INVALID,360.0,VALID,0.0,
2019-03-23, 02:11:07,VALID,918.433,VALID,0.0,VALID,95.379,VALID,0.01,VALID,20.386,INVALID,360.0,VALID,0.0,
2019-03-23, 02:12:07,VALID,918.41,VALID,0.0,VALID,95.354,VALID,0.009,VALID,20.442,INVALID,360.0,VALID,0.0,
2019-03-23, 02:13:07,VALID,918.391,VALID,0.0,VALID,95.165,VALID,0.008,VALID,20.5,INVALID,360.0,VALID,0.0,
2019-03-23, 02:14:07,VALID,918.357,VALID,0.0,VALID,94.506,VALID,-0.004,VALID,20.501,INVALID,360.0,VALID,0.0,
2019-03-23, 02:15:07,VALID,918.343,VALID,0.0,VALID,93.961,VALID,0.003,VALID,20.452,INVALID,360.0,VALID,0.0,
2019-03-23, 02:16:07,VALID,918.324,VALID,0.0,VALID,94.171,VALID,-0.001,VALID,20.403,INVALID,360.0,VALID,0.0,
2019-03-23, 02:17:07,VALID,918.325,VALID,0.0,VALID,94.365,VALID,-0.024,VALID,20.366,INVALID,360.0,VALID,0.0,
2019-03-23, 02:18:07,VALID,918.331,VALID,0.0,VALID,94.531,VALID,-0.015,VALID,20.34,INVALID,360.0,VALID,0.0,
2019-03-23, 02:19:07,VALID,918.308,VALID,0.0,VALID,94.668,VALID,-0.01,VALID,20.322,INVALID,360.0,VALID,0.0,
2019-03-23, 02:20:07,VALID,918.318,VALID,0.0,VALID,94.743,VALID,-0.018,VALID,20.306,INVALID,360.0,VALID,0.0,
2019-03-23, 02:21:07,VALID,918.302,VALID,0.0,VALID,94.851,VALID,-0.013,VALID,20.307,INVALID,360.0,VALID,0.0,
2019-03-23, 02:22:07,VALID,918.324,VALID,0.0,VALID,94.952,VALID,0.005,VALID,20.302,INVALID,360.0,VALID,0.0,
2019-03-23, 02:23:07,VALID,918.316,VALID,0.0,VALID,94.747,VALID,-0.0,VALID,20.267,VALID,46.0,VALID,0.0,
2019-03-23, 02:24:07,VALID,918.335,VALID,0.0,VALID,95.071,VALID,0.002,VALID,20.241,INVALID,360.0,VALID,0.0,
2019-03-23, 02:25:07,VALID,918.35,VALID,0.0,VALID,95.16,VALID,0.001,VALID,20.2,INVALID,360.0,VALID,0.0,
2019-03-23, 02:26:07,VALID,918.395,VALID,0.0,VALID,95.507,VALID,0.003,VALID,20.198,INVALID,360.0,VALID,0.0,
2019-03-23, 02:27:07,VALID,918.423,VALID,0.0,VALID,95.657,VALID,0.019,VALID,20.176,INVALID,360.0,VALID,0.0,
2019-03-23, 02:28:07,VALID,918.434,VALID,0.0,VALID,95.653,VALID,0.001,VALID,20.157,INVALID,360.0,VALID,0.0,
2019-03-23, 02:29:07,VALID,918.438,VALID,0.0,VALID,96.098,VALID,-0.003,VALID,20.184,INVALID,360.0,VALID,0.0,
2019-03-23, 02:30:07,VALID,918.425,VALID,0.0,VALID,96.274,VALID,-0.019,VALID,20.159,INVALID,360.0,VALID,0.0,
2019-03-23, 02:31:07,VALID,918.417,VALID,0.0,VALID,95.796,VALID,-0.009,VALID,20.062,INVALID,360.0,VALID,0.0,
2019-03-23, 02:32:07,VALID,918.401,VALID,0.0,VALID,95.673,VALID,-0.003,VALID,20.021,INVALID,360.0,VALID,0.0,
2019-03-23, 02:33:07,VALID,918.379,VALID,0.0,VALID,95.57,VALID,0.005,VALID,19.98,INVALID,360.0,VALID,0.0,
2019-03-23, 02:34:07,VALID,918.356,VALID,0.0,VALID,95.628,VALID,0.007,VALID,19.982,INVALID,360.0,VALID,0.0,
2019-03-23, 02:35:07,VALID,918.341,VALID,0.0,VALID,95.895,VALID,-0.0,VALID,19.999,INVALID,360.0,VALID,0.0,
2019-03-23, 02:36:07,VALID,918.331,VALID,0.0,VALID,95.885,VALID,-0.012,VALID,19.945,INVALID,360.0,VALID,0.0,
2019-03-23, 02:37:07,VALID,918.328,VALID,0.0,VALID,95.738,VALID,-0.008,VALID,19.861,INVALID,360.0,VALID,0.0,
2019-03-23, 02:38:07,VALID,918.347,VALID,0.0,VALID,95.728,VALID,-0.013,VALID,19.81,INVALID,360.0,VALID,0.0,
2019-03-23, 02:39:07,VALID,918.358,VALID,0.0,VALID,96.1,VALID,-0.006,VALID,19.786,INVALID,360.0,VALID,0.0,
2019-03-23, 02:40:07,VALID,918.378,VALID,0.0,VALID,96.166,VALID,-0.012,VALID,19.756,INVALID,360.0,VALID,0.0,
2019-03-23, 02:41:07,VALID,918.365,VALID,0.0,VALID,96.34,VALID,-0.002,VALID,19.754,INVALID,360.0,VALID,0.0,
2019-03-23, 02:42:07,VALID,918.362,VALID,0.0,VALID,96.589,VALID,-0.014,VALID,19.779,INVALID,360.0,VALID,0.0,
2019-03-23, 02:43:07,VALID,918.334,VALID,0.0,VALID,96.914,VALID,-0.008,VALID,19.833,INVALID,360.0,VALID,0.0,
2019-03-23, 02:44:07,VALID,918.304,VALID,0.0,VALID,96.818,VALID,0.019,VALID,19.821,INVALID,360.0,VALID,0.0,
2019-03-23, 02:45:07,VALID,918.269,VALID,0.0,VALID,96.856,VALID,0.011,VALID,19.859,INVALID,360.0,VALID,0.0,
2019-03-23, 02:46:07,VALID,918.284,VALID,0.0,VALID,96.96,VALID,0.016,VALID,19.908,INVALID,360.0,VALID,0.0,
2019-03-23, 02:47:07,VALID,918.278,VALID,0.0,VALID,96.74,VALID,0.004,VALID,19.898,INVALID,360.0,VALID,0.0,
2019-03-23, 02:48:07,VALID,918.278,VALID,0.0,VALID,96.318,VALID,0.014,VALID,19.886,INVALID,360.0,VALID,0.0,
2019-03-23, 02:49:07,VALID,918.295,VALID,0.0,VALID,96.227,VALID,0.014,VALID,19.9,INVALID,360.0,VALID,0.0,
2019-03-23, 02:50:07,VALID,918.305,VALID,0.0,VALID,96.174,VALID,0.009,VALID,19.916,INVALID,360.0,VALID,0.0,
2019-03-23, 02:51:07,VALID,918.323,VALID,0.0,VALID,96.315,VALID,-0.003,VALID,19.953,INVALID,360.0,VALID,0.0,
2019-03-23, 02:52:07,VALID,918.32,VALID,0.0,VALID,96.302,VALID,0.001,VALID,19.974,INVALID,360.0,VALID,0.0,
2019-03-23, 02:53:07,VALID,918.299,VALID,0.0,VALID,96.023,VALID,-0.007,VALID,19.96,INVALID,360.0,VALID,0.0,
2019-03-23, 02:54:07,VALID,918.281,VALID,0.0,VALID,95.781,VALID,-0.013,VALID,19.957,INVALID,360.0,VALID,0.0,
2019-03-23, 02:55:07,VALID,918.281,VALID,0.0,VALID,95.714,VALID,0.004,VALID,19.955,INVALID,360.0,VALID,0.0,
2019-03-23, 02:56:07,VALID,918.265,VALID,0.0,VALID,95.799,VALID,-0.003,VALID,19.972,INVALID,360.0,VALID,0.0,
2019-03-23, 02:57:07,VALID,918.251,VALID,0.0,VALID,96.168,VALID,0.008,VALID,19.995,INVALID,360.0,VALID,0.0,
2019-03-23, 02:58:07,VALID,918.204,VALID,0.0,VALID,96.601,VALID,0.009,VALID,20.074,INVALID,360.0,VALID,0.0,
2019-03-23, 02:59:07,VALID,918.192,VALID,0.0,VALID,96.727,VALID,-0.002,VALID,20.099,INVALID,360.0,VALID,0.0,
2019-03-23, 03:00:07,VALID,918.16,VALID,0.0,VALID,96.623,VALID,-0.015,VALID,20.121,INVALID,360.0,VALID,0.0,
2019-03-23, 03:01:07,VALID,918.115,VALID,0.0,VALID,96.609,VALID,-0.009,VALID,20.135,INVALID,360.0,VALID,0.0,
2019-03-23, 03:02:07,VALID,918.094,VALID,0.0,VALID,96.602,VALID,-0.002,VALID,20.197,INVALID,360.0,VALID,0.0,
2019-03-23, 03:03:07,VALID,918.083,VALID,0.0,VALID,96.388,VALID,-0.004,VALID,20.213,INVALID,360.0,VALID,0.0,
2019-03-23, 03:04:07,VALID,918.088,VALID,0.0,VALID,96.043,VALID,0.0,VALID,20.191,INVALID,360.0,VALID,0.0,
2019-03-23, 03:05:07,VALID,918.117,VALID,0.0,VALID,96.04,VALID,0.011,VALID,20.195,INVALID,360.0,VALID,0.0,
2019-03-23, 03:06:07,VALID,918.13,VALID,0.0,VALID,95.911,VALID,-0.016,VALID,20.193,INVALID,360.0,VALID,0.0,
2019-03-23, 03:07:06,VALID,918.129,VALID,0.0,VALID,96.104,VALID,-0.018,VALID,20.23,INVALID,360.0,VALID,0.0,
2019-03-23, 03:08:06,VALID,918.12,VALID,0.0,VALID,95.946,VALID,-0.013,VALID,20.239,INVALID,360.0,VALID,0.0,
2019-03-23, 03:09:06,VALID,918.129,VALID,0.0,VALID,95.873,VALID,-0.008,VALID,20.255,INVALID,360.0,VALID,0.0,
2019-03-23, 03:10:06,VALID,918.13,VALID,0.0,VALID,95.809,VALID,0.003,VALID,20.272,INVALID,360.0,VALID,0.0,
2019-03-23, 03:11:06,VALID,918.109,VALID,0.0,VALID,95.481,VALID,-0.036,VALID,20.26,INVALID,360.0,VALID,0.0,
2019-03-23, 03:12:06,VALID,918.106,VALID,0.0,VALID,94.991,VALID,-0.022,VALID,20.257,INVALID,360.0,VALID,0.0,
2019-03-23, 03:13:06,VALID,918.085,VALID,0.0,VALID,94.976,VALID,-0.027,VALID,20.266,INVALID,360.0,VALID,0.0,
2019-03-23, 03:14:06,VALID,918.074,VALID,0.0,VALID,94.988,VALID,0.004,VALID,20.272,INVALID,360.0,VALID,0.0,
2019-03-23, 03:15:06,VALID,918.055,VALID,0.0,VALID,95.079,VALID,-0.003,VALID,20.278,INVALID,360.0,VALID,0.0,
2019-03-23, 03:16:06,VALID,918.069,VALID,0.0,VALID,94.814,VALID,0.012,VALID,20.213,INVALID,360.0,VALID,0.0,
2019-03-23, 03:17:06,VALID,918.048,VALID,0.0,VALID,94.808,VALID,0.002,VALID,20.159,INVALID,360.0,VALID,0.0,
2019-03-23, 03:18:06,VALID,918.05,VALID,0.0,VALID,95.083,VALID,-0.001,VALID,20.128,INVALID,360.0,VALID,0.0,
2019-03-23, 03:19:06,VALID,917.992,VALID,0.0,VALID,95.06,VALID,0.022,VALID,20.109,INVALID,360.0,VALID,0.0,
2019-03-23, 03:20:06,VALID,918.01,VALID,0.0,VALID,95.692,VALID,0.015,VALID,20.144,INVALID,360.0,VALID,0.0,
2019-03-23, 03:21:06,VALID,918.009,VALID,0.0,VALID,95.221,VALID,0.027,VALID,20.061,INVALID,360.0,VALID,0.0,
2019-03-23, 03:22:06,VALID,918.009,VALID,0.0,VALID,95.062,VALID,0.012,VALID,19.991,VALID,45.0,VALID,0.0,
2019-03-23, 03:23:06,VALID,918.012,VALID,0.0,VALID,94.715,VALID,0.011,VALID,19.897,VALID,45.0,VALID,0.0,
2019-03-23, 03:24:06,VALID,918.002,VALID,0.0,VALID,95.092,VALID,0.02,VALID,19.878,INVALID,360.0,VALID,0.0,
2019-03-23, 03:25:06,VALID,917.982,VALID,0.0,VALID,95.365,VALID,0.027,VALID,19.876,INVALID,360.0,VALID,0.0,
2019-03-23, 03:26:06,VALID,917.987,VALID,0.0,VALID,95.63,VALID,0.018,VALID,19.873,INVALID,360.0,VALID,0.0,
2019-03-23, 03:27:06,VALID,917.951,VALID,0.0,VALID,95.742,VALID,0.034,VALID,19.863,INVALID,360.0,VALID,0.0,
2019-03-23, 03:28:06,VALID,917.927,VALID,0.0,VALID,95.952,VALID,0.036,VALID,19.834,INVALID,360.0,VALID,0.0,
2019-03-23, 03:29:06,VALID,917.899,VALID,0.0,VALID,95.719,VALID,0.001,VALID,19.76,INVALID,360.0,VALID,0.0,
2019-03-23, 03:30:06,VALID,917.874,VALID,0.0,VALID,95.965,VALID,-0.015,VALID,19.733,INVALID,360.0,VALID,0.0,
2019-03-23, 03:31:06,VALID,917.821,VALID,0.0,VALID,96.367,VALID,-0.006,VALID,19.704,INVALID,360.0,VALID,0.0,
2019-03-23, 03:32:06,VALID,917.814,VALID,0.0,VALID,96.322,VALID,-0.018,VALID,19.617,INVALID,360.0,VALID,0.0,
2019-03-23, 03:33:06,VALID,917.761,VALID,0.0,VALID,97.007,VALID,-0.021,VALID,19.703,INVALID,360.0,VALID,0.0,
2019-03-23, 03:34:06,VALID,917.747,VALID,0.0,VALID,97.487,VALID,-0.017,VALID,19.792,INVALID,360.0,VALID,0.0,
2019-03-23, 03:35:06,VALID,917.76,VALID,0.0,VALID,97.618,VALID,-0.012,VALID,19.817,INVALID,360.0,VALID,0.0,
2019-03-23, 03:36:06,VALID,917.757,VALID,0.0,VALID,97.71,VALID,-0.01,VALID,19.843,INVALID,360.0,VALID,0.0,
2019-03-23, 03:37:06,VALID,917.784,VALID,0.0,VALID,97.803,VALID,-0.018,VALID,19.885,INVALID,360.0,VALID,0.0,
2019-03-23, 03:38:06,VALID,917.784,VALID,0.0,VALID,97.693,VALID,-0.009,VALID,19.838,INVALID,360.0,VALID,0.0,